Classificación 105 km

Ranking Temps Cognom Nom Gènere Naixement Nacionalitat Dorsal Parat a
1 13:27:22 MORALES RAMIREZ Gerard M 1975-07-18 ESP 5 Meta - Barruera
2 13:33:39 DUARTE Luís M 1988-09-25 POR 93 Meta - Barruera
3 13:48:31 SANCHEZ CEBRIAN Miguel Angel M 1975-02-06 ESP 71 Meta - Barruera
4 14:04:08 AUSIRÓ SUBIRATS Ernest M 1990-01-01 ESP 8 Meta - Barruera
5 10:41:07 BERNAD BLASCO Victor M 1977-04-19 ESP 24 Estany Gento
6 10:56:57 DURAN LÓPEZ Yeray M 1977-05-21 ESP 6 Estany Gento
7 11:09:15 PUIG CATALAN Marc M 1982-09-06 ESP 16 Estany Gento
8 11:10:47 CASADELLÀ GARDELLA Jordi M 1978-09-07 ESP 102 Estany Gento
9 11:11:37 JURA Rafał M 1987-11-11 POL 111 Estany Gento
10 11:33:12 FOLGUERA ROBERT Jaume M 1977-10-09 ESP 14 Estany Gento
11 12:37:33 NOGUERA ANTICH Joan M 1987-11-10 ESP 17 Estany Gento
12 13:07:57 MONDEJAR VERDU Juan M 1976-12-26 ESP 54 Estany Gento
13 08:01:28 BARTOLÓ ROCA Pau M 1978-10-12 ESP 9 Espot
14 09:25:31 GOMEZ LOZANO Carlos M 1977-06-09 ESP 46 Espot
15 09:28:50 TORIJA GONZALEZ Isaac M 1978-04-24 ESP 13 Espot
16 09:37:23 GAINZA SALINAS Urtzi M 1979-04-06 ESP 25 Espot
17 09:37:44 FRANCH PONS Judit F 1986-06-17 ESP 10 Espot
18 09:43:30 MONJE PUIGDENGOLAS Oscar M 1983-02-09 ESP 83 Espot
19 09:46:27 MARTÍNEZ FERNANDEZ José Luis M 1981-11-14 ESP 40 Espot
20 09:48:20 GOMEZ Enric M 1985-05-07 SUI 81 Espot
21 09:48:25 NOGUÉS LLORENS Jaume M 1980-05-20 ESP 35 Espot
22 09:48:49 CARBONELL GRAU Juan M 1968-01-02 ESP 87 Espot
23 09:50:32 MARTINEZ HERRERA Leire F 1978-09-25 ESP 11 Espot
24 09:57:09 MORALES RUIZ Jesus M 1983-05-12 ESP 99 Espot
25 09:57:28 RODRIGUEZ PAREDES Jose Manuel M 1969-12-06 ESP 138 Espot
26 10:03:22 HAJDUK Piotr M 1987-07-01 POL 112 Espot
27 10:06:38 BAQUERIZAS RODAS Francisco Javier M 1971-03-09 ESP 73 Espot
28 10:10:41 CABANAS COMA Josep Maria M 1969-03-18 ESP 126 Espot
29 10:13:38 LEON ROMAN Raul M 1981-07-08 ESP 131 Espot
30 10:16:14 ALFONSO UCHER Ximo M 1978-02-20 ESP 21 Espot
31 10:16:29 BERNAT GIL Alejo M 1971-01-05 ESP 77 Espot
32 10:16:54 JUSTICIA SALGADO Jordi M 1981-10-08 ESP 58 Espot
33 10:17:39 SALAT MARTÍ Albert M 1993-06-13 ESP 36 Espot
34 10:19:09 MADRID MARIN Antonio M 1980-09-19 ESP 43 Espot
35 10:19:14 SANZ LÓPEZ Toni M 1980-08-22 ESP 19 Espot
36 10:20:31 VALLE RODRIGUEZ Jose Luis M 1976-08-26 ESP 31 Espot
37 10:22:52 LINKOWSKI Michał M 1977-02-22 POL 104 Espot
38 10:23:19 MARTÍNEZ RIERA Francesc M 1997-06-17 ESP 113 Espot
39 10:23:25 VALDAVIDA RODRIGUEZ Felix M 1983-12-18 POR 136 Espot
40 10:26:08 CASANOVA CAZORLA Fernando M 1978-07-10 ESP 60 Espot
41 10:27:31 VILASECA Manuela F 1979-05-24 ESP 4 Espot
42 10:27:45 GONFAUS CASTAÑO Albert M 1968-05-28 ESP 114 Espot
43 10:27:58 ESCUDER TELLA Jose Maria M 1976-07-26 ESP 45 Espot
44 10:28:52 AGULLÓ BLASCO David M 1978-12-29 ESP 70 Espot
45 10:30:55 RUIZ VERDUGO Jose Manuel M 1975-02-20 AND 128 Espot
46 10:35:52 MOLINA HURTADO Luis M 1975-02-01 ESP 80 Espot
47 10:35:54 LEÓN Roberto M 1984-10-22 ESP 32 Espot
48 10:41:21 RUIZ MARTINEZ Carlos M 1984-11-02 ESP 82 Espot
49 10:41:29 SANZ MOLERO Eduardo M 1980-04-25 ESP 42 Espot
50 10:48:40 NICOLAS PAZO Manuel Alejandro M 1981-06-05 ESP 44 Espot
51 10:48:58 GILABERT PALLISSÓ Albert M 1971-07-04 ESP 119 Espot
52 10:49:14 NUÑEZ GODOY Manel M 1967-09-24 ESP 50 Espot
53 10:50:05 PONS ROQUETA Joan M 1958-07-31 ESP 121 Espot
54 10:50:10 VALDERRAMA LEON Victor M 1965-09-20 ESP 37 Espot
55 10:50:16 AZURMENDI ZABALA Igor M 1976-11-04 ESP 33 Espot
56 10:51:17 SOLÉ PLA Sergi M 1968-10-27 ESP 18 Espot
57 10:51:38 ORTIZ FABREGAS Mario M 1982-05-10 ESP 49 Espot
58 10:57:41 REGALADO SEGARRA Ivan M 1973-11-03 ESP 100 Espot
59 10:57:44 BATLLORI LLAURADÓ Ferran M 1975-02-13 ESP 75 Espot
60 11:04:24 IXCOT Carlos M 1974-11-28 GER 67 Espot
61 11:06:11 LILLO TEJEDA Ignacio Javier M 1972-05-15 ESP 101 Espot
62 11:06:16 GARCIA SORIA Santiago M 1975-01-16 ESP 41 Espot
63 11:09:32 ROMAN PAYA Antonio Ezequiel M 1981-01-25 ESP 27 Espot
64 11:09:50 ALVEZ MAYNA Marcos Gelson M 1973-09-15 BEL 140 Espot
65 11:09:57 ANIORTE ESCLAPEZ Tomás M 1985-11-13 ESP 68 Espot
66 11:15:54 BONIN Cyrille M 1980-03-29 FRA 78 Espot
67 11:18:20 RODRIGUEZ BRACHS Berta F 0000-00-00 ESP 141 Espot
68 11:18:41 ANGELET ROJAS Carles M 1983-03-05 ESP 91 Espot
69 11:25:25 CREIXELL CATALAN Pere M 1971-08-21 ESP 127 Espot
70 11:27:41 DIRK Van Spitaels M 0000-00-00 ESP 142 Espot
71 11:30:49 CASTILLO CARRASCAL Paco M 1972-04-14 ESP 84 Espot
72 11:30:53 GOMEZ Fernando M 1983-08-01 POR 155 Espot
73 11:34:47 RUEDA RUIZ Nestor M 1979-01-31 ESP 52 Espot
74 11:34:48 GARCIA CONDE Julen M 1979-01-29 ESP 53 Espot
75 11:35:16 ANDUEZA ARAMENDIA Eneko M 1983-11-21 ESP 59 Espot
76 11:38:49 PARRA MORA Antonio M 1969-09-11 ESP 74 Espot
77 11:38:52 VARA NAVARRO Gori M 1974-05-28 ESP 51 Espot
78 11:38:58 DURAN Jaume M 1976-01-27 ESP 23 Espot
79 11:39:13 SANAHUJA GAVARA Javier M 1977-05-06 ESP 30 Espot
80 11:40:34 TELLEZ Oscar M 1976-01-11 ESP 133 Espot
81 11:42:13 RAVENTOS MESTRES Rafel M 1975-06-03 ESP 89 Espot
82 11:59:37 ETXABE IZAGUIRRE Mikel M 1980-02-07 ESP 130 Espot
83 12:02:20 REMINGOL Guillaume M 1985-01-11 FRA 62 Espot
84 12:06:14 RENAUD Nicolas M 1974-02-24 ESP 116 Espot
85 12:08:46 CHAVES TRUJILLO Antonio M 1965-09-28 ESP 38 Espot
85 12:08:46 JIMENEZ RUIZ Juan Jose M 1980-03-03 ESP 92 Espot
85 12:08:46 MORAL RODRIGUEZ Rafael M 1978-09-03 ESP 98 Espot
85 12:08:46 SUBARROCA SANCHEZ Jordi M 1982-01-18 ESP 103 Espot
85 12:08:46 PUERTA REDONDO Laura F 1992-06-06 ESP 143 Espot
90 12:29:35 SANCHO ALCAZAR Xavier M 1985-05-19 ESP 88 Espot
91 12:32:23 MANZHAY Igor M 1982-10-26 RUS 65 Espot
92 12:32:45 SANTOS Edgar M 1985-05-10 ESP 137 Espot
93 12:34:29 ARROYO ARROYO Raul M 1975-08-03 ESP 109 Espot
94 12:35:04 VIÑES GIMENEZ Jordi M 1974-06-04 ESP 117 Espot
95 12:35:37 SISTERE LLOP Montserrat F 1968-04-27 ESP 12 Espot
96 12:35:39 COLERA GOSET Jordi M 1971-07-09 ESP 105 Espot
97 12:40:45 PUY MUGUIRO Enrique M 1983-12-31 ESP 79 Espot
98 12:40:52 CANDELA MARTINEZ Mariano M 1994-05-24 ESP 69 Espot
98 12:40:52 HERRERO GARCÍA Juan José M 1972-04-28 ESP 134 Espot
100 12:44:50 PIKABEA INDAKOETXEA Asier M 1975-03-26 ESP 20 Espot
101 12:49:10 RODRIGUEZ PEINADO Constantino M 1972-07-09 ESP 132 Espot
102 12:54:58 ROSAURO GONZALVO Antonio M 1982-10-18 ESP 29 Espot
103 13:01:37 SANTOS REMENTERIA Jose Ramon M 1968-03-28 ESP 56 Espot
104 13:20:51 FREIJO ESPIN Fernando M 1967-11-26 ESP 72 Espot
105 13:27:57 FERRI DURA Vicente M 1969-03-20 ESP 94 Espot
106 13:29:25 HERNANDEZ PARDO Jose Ramon M 1974-06-08 ESP 48 Espot
107 13:29:42 ZABALA PASTOR Javier M 1975-05-21 ESP 95 Espot
108 13:29:46 GARCIA-VALLAURE HERNÁNDEZ Ramon M 1967-04-08 ESP 85 Espot
109 13:32:32 BRITO Manuel M 1982-03-23 POR 154 Espot
110 13:47:28 FIGUERAS ALVAREZ David M 1975-10-19 ESP 120 Espot
111 13:51:52 SUCH SUAREZ Ignasi M 1976-06-07 ESP 96 Espot
112 13:52:48 TARRÉS GIRBAU Jordi M 1964-09-21 ESP 64 Espot
113 14:10:19 SERRALLONGA GASCH Toni M 1958-09-20 ESP 61 Espot
DNF   MARTINEZ GARCIA Jorge M 1976-08-01 ESP 97  
DNF   UGARTE MARTIN Jon M 1973-03-21 ESP 47  
DNF   DIAZ ALTABA Oscar M 1974-10-21 ESP 106  
DNF   ARMERO MONTESINOS Juan Carlos M 1974-10-03 ESP 28  
DNF   ANGLES TALLADA Joaquim M 1987-04-08 ESP 26  
DNF   ROSSELLÓ SOLÉ Eugeni M 1980-12-08 ESP 7  
DNF   MORENO CAMPOS Jose Luis M 1983-08-28 ESP 108  
DNF   NOGUES RIPOLL David M 1980-08-07 ESP 122  
DNF   NICOLÁS ZAFRA Fernando M 1982-04-20 ESP 129  

 

Classificación 42 km

 

Ranking Temps Cognom nom Gènere Naixement Nacionalitat Dorsal
1 04:08:24 GIL OCAÑA Eugeni H 1994-05-09 ESP 322
2 04:11:52 EGEA Aritz H 1984-04-17 ESP 327
3 04:16:47 MICHAUD Adrien H 1983-08-09 ESP 715
4 04:23:47 AIT CHAOU Hassan H 1977-08-26 ESP 328
5 04:25:15 CASAL MIR Marc H 1982-08-29 AND 312
6 04:26:26 AIT MALEK Zaid H 1984-01-01 ESP 304
7 04:26:41 HERNANDEZ TEIXIDOR Eduard H 1981-07-29 ESP 323
8 04:30:53 OLMEDO SANCHA Mario H 1993-09-17 ESP 317
9 04:33:33 MARTINEZ DE ESTIBARIZ Julen H 1984-09-18 ESP 330
10 04:33:48 MIER Victor H 1988-03-17 ESP 761
11 04:34:07 RODRIGUEZ BATISTA Sergi H 1983-12-12 ESP 716
12 04:36:54 SIMON AYMERICH Andreu H 1991-08-27 ESP 325
13 04:41:37 PRADES MONFORT David H 1992-10-30 ESP 324
14 04:46:22 GERRIKAETXEBARRIA Ander H 1996-04-19 ESP 326
15 04:46:43 CARRASCO GIRALDEZ Oscar H 1976-07-12 ESP 319
16 04:51:27 BOUVIER-GAZ Nicolas H 1984-05-22 ESP 711
17 04:53:02 RAFECAS FIGUERAS Emili H 1981-09-07 ESP 695
18 04:53:11 LJUNGDAHL Sebastian H 1988-10-13 SWE 548
19 04:55:12 JONES Harry H 1989-08-21   606
20 04:58:33 VILLALBA SANZ Angel H 1984-06-02 ESP 533
21 04:59:26 MACIA GARCIA Francisco Vicente H 1989-01-31 ESP 578
22 05:01:03 VILAR RIBO Pau H 1991-08-21 ESP 316
22 05:01:03 CALDERON GUILLEN Toni H 1976-08-11 ESP 337
24 05:03:23 ARROYO MAZORRA Diego H 1988-08-31 ESP 321
25 05:05:59 HIERRO Riki H 1977-01-18 ESP 706
26 05:06:28 ROTA MUNDO Raul H 1981-06-04 ESP 581
27 05:07:28 AZKORBEBEITIA Oihana F 1981-08-28 ESP 853
28 05:07:54 CHIRON Celia F 1988-08-01 FRA 921
29 05:10:23 SOLA DE MIGUEL Laura F 1980-05-23 ESP 851
30 05:12:00 MARTI CALABUIG Joaquin H 1986-10-25 ESP 642
31 05:12:26 DELAGE Victor H 1985-10-15 FRA 650
32 05:14:09 VIVES Cinto H 1979-02-27 ESP 718
33 05:17:04 MANTERO Carlos H 1989-09-30 ESP 401
34 05:18:24 RICO POVEDA Luis H 1977-06-29 ESP 513
35 05:19:05 CLAVEL TORRES Jorge H 1982-04-26 ESP 414
36 05:20:39 SALAMÓ CASALS David H 1978-07-06 ESP 675
37 05:21:10 RODRIGO HERRERO Javier H 1981-01-01 ESP 719
38 05:22:29 SABATÉ SANCHO Ivan H 1981-04-12 ESP 415
39 05:24:09 LARRUZEA Julen H 1982-10-24 ESP 329
40 05:25:06 CIZEAU Thibault H 1983-02-16 FRA 520
41 05:27:46 SOLER SALA Albert H 1989-02-11 ESP 665
42 05:28:49 MARTINEZ SAMPERE Ricardo H 1976-07-14 ESP 635
43 05:33:57 RUEDA QUILES Jose Angel H 1976-06-05 ESP 451
44 05:35:02 CALDERÓ BALAÑÁ Genis H 1991-11-22 ESP 445
45 05:36:36 GAY I TELLO David H 1980-06-04 ESP 631
46 05:38:53 BERNAD BLASCO Israel H 1974-08-29 ESP 674
47 05:38:58 ROMERO SALLENT Jordi H 1983-12-25 ESP 582
48 05:41:40 GIELTY Damian H 1984-02-22 NED 494
49 05:44:02 RENIU Marc H 1977-03-07 ESP 687
50 05:45:23 LLOBERA MUIXI Jordi H 1979-12-13 ESP 522
51 05:45:38 ARRETXE ANTXORDOKI David H 1984-12-28 ESP 693
52 05:45:52 ROQUET SAQUES Lluis H 1976-12-13 ESP 384
53 05:46:12 SANCES AYALA Sergi H 1985-05-24 ESP 430
54 05:46:38 ROMERO CRISPIN Jorge H 1980-04-17 ESP 441
55 05:47:03 PASTOR VILLAGRASA Nico H 1993-06-15 ESP 659
55 05:47:03 FERNANDEZ MENA Rafa H 1992-10-10 ESP 721
57 05:48:03 MARTINEZ ALIAGA Enric Miquel H 1978-02-14 ESP 688
58 05:48:55 LOBERA GRAU Paloma F 1976-08-14 ESP 855
59 05:49:25 BERNAT LLORENS Eva F 1988-04-07 ESP 918
60 05:53:23 BERJON ERIZ Gorka H 1978-01-16 ESP 442
61 05:54:06 OPSAHL Elise Hay F 1975-02-21 NOR 864
62 05:54:20 DUQUE ZUMAJO Diego H 1988-07-28 ESP 404
63 05:55:24 HOSSACK LOPEZ Derek H 1980-09-04 ESP 652
64 05:55:48 GRANADOS ROMERO Miguel Angel H 1977-04-08 ESP 592
65 05:57:39 LINDEMANN QUINTANA Edmundo H 1970-12-03 ESP 519
66 05:59:13 FERRERA VELARDO Oscar H 1980-03-28 ESP 423
67 06:02:17 CERNUDA LOPEZ Sergi H 1981-09-10 ESP 481
68 06:04:17 MARTÍNEZ VENEGAS Emilio José H 1980-10-18 ESP 551
68 06:04:17 ARGUISUELAS MORAL Jordi H 1983-03-28 ESP 623
70 06:04:22 SILVESTRE LLINARES Jaume H 1982-07-25 ESP 681
71 06:04:34 FERNANDEZ ZORITA Jorge Juan H 1978-01-14 ESP 692
72 06:04:48 MORRAL VENTURA Joan H 1985-09-29 ESP 516
73 06:05:11 JAVALOYAS MOLINA Dani H 1981-05-25 ESP 555
74 06:05:31 QUETGLAS CALDÉS Jaume H 1980-01-29 ESP 685
74 06:05:31 PÉREZ LÓPEZ Benito H 1977-06-01 ESP 686
76 06:05:40 LASO UTRILLA Dani H 1979-12-02 ESP 640
77 06:06:14 FLOREZ David H 1982-11-23 ESP 537
78 06:07:22 MARTINEZ ZAMBRANA Fran H 1975-07-30 ESP 567
79 06:08:23 BOQUETE SAIZ Miguel Angel H 1979-05-11 ESP 707
80 06:10:25 LAGO CAMPS David H 1973-07-13 ESP 697
81 06:14:18 GONZALEZ PEREGRINO Antonio H 1974-06-06 ESP 449
82 06:15:13 GUTIERREZ BONILLA Eduard H 1987-05-02 ESP 544
83 06:17:18 VALLS MATA Xavi H 1987-12-17 ESP 541
84 06:19:15 VELASCO PEÑACOBA Julian H 1987-07-03 ESP 696
85 06:19:57 CODINA RAMONJOAN Cels H 1978-12-08 ESP 387
86 06:19:58 VELASCO ALEDO Raul H 1979-11-08 ESP 596
87 06:20:25 PERIS MARIN Emilio H 1980-06-03 ESP 486
88 06:20:54 ARAUZO MARTÍN Carlos H 1976-05-27 ESP 646
89 06:21:55 BAUTISTA PAYAN Ramon H 1983-01-09 ESP 380
90 06:21:56 FAJA SALA Jaume H 1981-07-18 ESP 382
91 06:23:18 IGUAL PIÑOL Angel Agustin H 1976-06-09 ESP 694
92 06:26:02 BADIA BUSQUETS Manel H 1986-04-21 ESP 525
93 06:26:07 URZELAI INZA Jon H 1977-03-01 ESP 528
94 06:27:30 REIG FERRI Nando H 1983-10-27 ESP 410
95 06:31:15 GOROSTIOLA VIDAURRAZAGA Lide F 1982-01-30 ESP 891
96 06:31:19 RAZGA Ismail H 1994-12-09 ESP 303
97 06:31:42 REVERTÉ MOYA Albert H 1979-03-01 ESP 662
98 06:32:02 GARCIA MORENO Lorenzo H 1976-09-26 ESP 502
99 06:33:09 MOLINA GALINDO Roger H 1981-05-16 ESP 586
100 06:35:22 BOU NACHES Rubén H 1979-11-08 ESP 419
100 06:35:22 OBRERO CATALÁN María F 1980-11-09 ESP 908
102 06:36:07 STOCKFIS David H 1980-06-03   369
103 06:36:24 SARSANEDAS SERRAT Albert H 1980-09-25 ESP 599
104 06:38:44 CORDERO ROBLES Juan H 1986-09-15 ESP 565
105 06:38:49 JAMIESON Ryan H 1987-02-24 ESP 406
106 06:38:58 MOYA MATA Artur H 1991-04-18 ESP 717
107 06:41:05 ESTEVEZ DE MIGUEL Alejandro H 1977-03-14 ESP 705
108 06:41:24 SHIRLEY Ian H 1991-07-28 ESP 700
109 06:43:44 ARMENGOL RABAL Marc H 1974-02-14 ESP 344
110 06:45:20 BORRÀS VALLS David H 1991-10-06 ESP 682
111 06:45:57 TAPIAS BAQUE Alex H 1972-01-14 ESP 484
112 06:46:19 MEISER Franz H 1971-03-09 GER 714
113 06:46:54 ESTEBAN LOSADA Alex H 1975-03-20 ESP 474
114 06:47:28 CAMI SUBIRA Marc H 1995-03-14 ESP 376
115 06:47:29 PEDROS BORIA Xavier H 1993-01-28 ESP 367
116 06:47:41 VALTIERRA Rubén H 1976-09-17 ESP 614
117 06:47:46 MOREY DE SOTO Fernando H 1973-07-28 ESP 485
118 06:47:48 DURAN OLIVE Carles H 1982-05-30 ESP 405
119 06:48:19 KWONG Daniel H 1988-12-31 ESP 708
120 06:48:33 LLORET GIRONES Nil H 1993-02-01 ESP 597
121 06:48:42 MOLINA GIL Bernat H 1994-10-08 ESP 429
122 06:49:04 ZUÑIGA GARCIA Silvia F 1985-08-10 ESP 922
123 06:49:06 TURMO GRUAS Jamma H 1975-11-08 ESP 342
124 06:49:10 ARANDA FERNANDEZ Jose H 1976-07-10 ESP 559
125 06:50:14 ZAFRILLA LOPEZ Aitor H 1980-12-26 ESP 345
126 06:50:23 MUNTÉ MATEU M.Eugènia F 1978-11-27 ESP 883
127 06:51:40 SEGURA CASTAÑEDA Angel H 1980-12-05 ESP 521
128 06:51:46 PONTE RICO Jose David H 1983-05-30 ESP 352
129 06:51:49 FERNANDEZ OLIVER David H 1978-05-18 ESP 450
130 06:53:44 SANCHEZ SANTANA Fco. Javier H 1974-08-26 ESP 493
131 06:54:11 MIRÓ BARBA Enric H 1979-02-14 ESP 608
132 06:54:12 CIURANA YENES Manu H 1973-05-10 ESP 609
133 06:55:13 ARTIGOT LLUELLAS Alexander H 1978-06-13 ESP 438
133 06:55:13 CAPALVO GRAU Ferran H 1980-12-21 ESP 440
135 06:56:22 PAUSA RIUS Toni H 1980-11-13 ESP 506
136 06:57:18 GÓMEZ MOTA Alberto H 1973-11-11 ESP 698
137 06:58:48 PARRA TEJADA Ivan H 1988-07-20 ESP 529
138 06:59:45 ARGÜELLES SERRANO Jordi H 1991-08-31 ESP 460
139 07:00:26 SARROCA BARRULL Gerard H 1979-04-17 ESP 638
140 07:02:21 ESPADAS HERVÁS Vicente H 1981-09-01 ESP 475
141 07:02:32 SÁNCHEZ RAMÓN Héctor H 1984-07-06 ESP 498
142 07:03:47 ROCAMORA DURAN Vicenç H 1968-03-17 ESP 547
142 07:03:47 TORTELLA GOST Llorenç H 1983-12-15 ESP 568
144 07:08:01 ROARK Daniel H 1976-12-08 USA 595
145 07:09:01 GUTIÉRREZ ARRIOLA Lope H 1981-09-24 ESP 648
146 07:09:31 BUESO RODENAS Joel H 1982-12-15 ESP 562
147 07:09:57 GELABERT TORTELLA Pere H 1981-06-27 ESP 571
148 07:10:46 RICART TOLEDO Oriol H 1985-10-01 ESP 612
149 07:11:46 SANABRIA MARTINEZ Gema F 1974-06-30 ESP 867
150 07:12:10 PONCE RUIZ Antonio H 1989-10-12 ESP 546
151 07:12:36 CABÓ CARRERA Roger H 1982-09-01 ESP 372
152 07:14:12 ARIZA CORTÉS Alex H 1992-05-14 ESP 394
152 07:14:12 DANOT CUCH Aleix H 1996-06-22 ESP 395
154 07:14:18 RODRIGUEZ CORCOBA Alberto H 1984-11-23 ESP 610
155 07:14:44 CODOSERO AGUILAR David H 1983-08-20 ESP 561
156 07:14:54 IDRAC Pierre H 1987-12-31 FRA 464
157 07:15:18 LAINEZ MARTI Javier H 1986-06-24 ESP 630
158 07:15:29 PEIRO PIFARRE Neus F 1969-03-29 ESP 870
159 07:15:37 VERGE MARCOS Albert H 1984-11-09 ESP 589
160 07:15:41 LINARES GIL Mario H 1974-10-13 ESP 701
161 07:16:12 LOPEZ MAÑEZ Pere H 1969-07-21 ESP 689
162 07:16:17 CARRASCO MOLERO Jose Luis H 1974-10-08 ESP 511
163 07:17:17 ESTRADA GARCIA Ramón H 1989-11-05 ESP 639
164 07:17:35 VAN DER BURG Remco H 1986-04-30 FRA 584
165 07:17:59 PENICHET GARCIA Pablo H 1973-10-01 ESP 408
165 07:17:59 VITORINO Fabio H 1981-07-25 ESP 409
167 07:18:48 NIETO ARIAS Salvador H 1981-03-15 ESP 375
168 07:18:55 ABAJAS GONZALEZ Sergio H 1984-01-16 ESP 413
169 07:19:35 SANCHEZ JIMENEZ Sara F 1992-01-06 ESP 913
170 07:19:51 FIOL BOYERAS Jeroni H 1967-09-21 ESP 469
171 07:20:26 ALBIZU LAZCOZ Iñigo H 1974-12-27 ESP 538
172 07:21:56 LEENMAN Timo H 1986-02-08 NED 585
173 07:21:58 MARTINEZ RASCON Marina F 1990-03-04 ESP 852
174 07:23:34 KORE Jordi H 1975-08-09 ESP 526
175 07:23:42 GARCIA LEAL Manel H 1994-09-18 ESP 643
176 07:23:52 ARANDA FERNÁNDEZ Luis H 1975-02-18 ESP 564
177 07:24:34 SEBASTIAN VALVERDE Enric H 1986-05-11 ESP 459
178 07:24:49 OLIVA TORRES Dani H 1981-07-21 ESP 574
179 07:25:04 GARCIA FERNANDEZ Roberto H 1967-04-04 ESP 403
180 07:25:48 JORDÀ RIERA Carles H 1971-07-29 ESP 552
181 07:26:00 SUGRAÑES D' AMBROSIO Daniel H 1972-01-06 ESP 557
182 07:27:07 CASTELLO PEIRO Oscar H 1971-09-21 ESP 691
183 07:27:10 PEREZ Daniel H 1975-11-28 ESP 432
184 07:27:11 ALSINA APARICIO Jordi H 1969-07-20 ESP 672
185 07:27:30 SALA CASAS Pere H 1969-06-17 ESP 634
186 07:28:02 FERNANDEZ OMS Toni H 1992-04-01 ESP 444
187 07:28:12 GISPERT GIRON Marc H 1983-01-23 ESP 690
188 07:28:28 MOR Jordi H 1972-05-17 ESP 591
189 07:29:33 ABELLAN DIAZ Joaquim H 1972-07-14 ESP 569
190 07:30:35 MACIAS LABRADOR Oliver H 1977-05-08 ESP 530
191 07:30:44 ALCAIDE CARRASCO Angel H 1974-09-17 ESP 365
192 07:31:08 SEBASTIÀ I RIERA Esteve H 1978-05-12 ESP 593
193 07:32:53 PÉREZ RUANO Alberto H 1989-01-15 ESP 645
194 07:33:21 PALET RUBIÓ Jordi H 1979-08-01 ESP 673
195 07:34:33 TERUEL HUGUET David H 1987-12-08 ESP 633
196 07:35:24 BUSTOS MOLINA Fernando H 1981-05-30 ESP 458
197 07:35:52 CROUS GUTIERREZ Gemma F 1992-01-30 ESP 911
198 07:35:53 MORALES FUENTECILLA Angel Ricardo H 1959-04-05 ESP 421
199 07:36:10 RUIZ CARRILLO Jaime H 1963-04-15 ESP 704
200 07:36:58 OLET LÓPEZ Rafa H 1971-11-21 ESP 666
201 07:37:14 CONSTANTINO FERRER Guillermo H 1974-06-23 ESP 488
201 07:37:14 GARCIA DIEZ Bego F 1979-11-16 ESP 890
203 07:37:15 CASTELLO DENIA Fran H 1979-10-31 ESP 471
204 07:37:29 SALGUERO MARTIN Joaquin H 1975-03-13 ESP 532
205 07:37:31 PRAT PONS Joni H 1979-03-09 ESP 518
205 07:37:31 HUGUET BORRELL Sergi H 1971-10-14 ESP 713
207 07:37:32 ROMAGUERA Rafa H 1979-09-10 ESP 457
208 07:37:38 UGAS DUBREUIL Marcel H 1981-01-12 ESP 620
209 07:39:20 LUJÁN ATIENZA Carlos H 1972-11-17 ESP 549
210 07:39:36 MARTI I SUBIROS David H 1973-02-17 ESP 545
211 07:39:38 BARCELÓ NOGUER Francesc H 1977-09-27 ESP 600
212 07:39:40 LANUZA SERRANO Óscar H 1975-10-28 ESP 379
213 07:40:43 ANDRES MARTIN Susana F 1983-11-17 ESP 903
214 07:41:55 FERNÁNDEZ DÍAZ Juan H 1991-01-26 ESP 669
215 07:42:08 FABREGAT ARNAL Oriol H 1982-11-10 ESP 504
216 07:42:32 PLANES SAURÍ Laura F 1970-09-19 ESP 881
217 07:43:03 PIFARRÉ JAIMEJUAN Àlex H 1986-06-13 ESP 363
218 07:47:56 BLANCO REYES Xavi H 1981-05-27 ESP 416
219 07:48:30 GEMES ARAGONÉS J.Carlos H 1972-07-28 ESP 588
220 07:48:40 PRAT PLA Oriol H 1979-01-06 ESP 624
221 07:48:42 GARCÍA MASIP Francisco H 1972-01-24 ESP 534
222 07:48:55 SERRANDO VARGAS Fernando H 1969-09-22 ESP 388
223 07:49:07 GUTIERREZ GENDE Mikel H 1973-10-27 ESP 678
224 07:49:30 PASCUAL CABEZA Robert H 1975-11-18 ESP 357
225 07:49:53 TAPIAS BAQUE Santi H 1972-01-14 ESP 487
226 07:50:19 URIBEETXEBERRIA MATAS Gorka H 1986-04-26 ESP 653
227 07:51:18 CARRERAS VILA Xevi H 1971-05-18 ESP 346
228 07:53:06 GARCÍA MARTÍN-SAUCEDA Juan Miguel H 1978-06-29 ESP 473
229 07:53:44 LIRIA ROMERO Jordi H 1968-06-05 ESP 572
230 07:54:18 SANCHEZ RODRIGUEZ Sonia F 1986-08-21 ESP 919
231 07:54:52 ORRANTIA AJENJO Fermin H 1960-05-05 ESP 349
232 07:55:23 BEYER Stefan H 1977-06-27 ESP 644
233 07:56:11 GIMÉNEZ TURCÓ Ferran H 1989-01-08 ESP 386
234 07:56:44 FORNS TEMPORAL Marc H 1976-08-07 ESP 448
235 07:56:54 CLARET PEREZ Carlos H 1977-01-08 ESP 361
236 07:56:55 FORT UCEDA Rafa H 1976-02-18 ESP 355
237 07:57:31 TERSA RIBERT Josep M. H 1975-11-14 ESP 499
238 07:58:13 CABRERA GOÑI Marcos H 1981-03-26 ESP 570
239 07:58:14 HERRAIZ REGALADO Ignacio H 1977-03-16 ESP 374
240 07:58:44 MONZÓ FUSTER Salva H 1967-11-25 ESP 497
241 07:58:56 ARÁNEGA AGUILAR Rafa H 1975-01-16 ESP 531
242 07:59:23 GARBAYO MINGO Raul H 1976-04-06 ESP 490
243 07:59:25 BLASCO ROMEO David H 1971-09-10 ESP 340
244 07:59:26 MUÑOZ GARCIA Rubén H 1987-05-02 ESP 391
245 07:59:29 MERCADO GARCÍA-BERMEJO Manuel H 1977-04-14 ESP 398
DNF   SADLO Aleksandra F 1988-07-01 ESP 915
DNF   MARTINEZ DE OLCOZ PENA Ainhoa F 1981-05-16 ESP 896
DNF   MORA MARÍN Javier H 1988-08-05 ESP 550
DNF   WILLIAMS Cameron H 1989-08-15 USA 671
DNF   BELDA LINARES Javi H 1977-08-16 ESP 615
DNF   PEIRÓ SABATER Olivia F 1971-05-11 ESP 907
DNF   VIÑAS MARTIN David H 1975-05-23 ESP 556
DNF   GILLIJNS Matthias H 1978-04-09 BEL 684
DNF   PINTO Cristian H 1975-08-10 ESP 622
DNF   LEMOS ARIZA David H 1980-10-20 ESP 598
DNF   SENTÍS CARNÉ Jordi H 1994-04-06 ESP 626
DNF   CHALMERS Joanna F 1979-08-31 NZL 878
DNF   DAZA PEREZ Adriana F 1983-01-31 ESP 898
DNF   SERRA PONS Marga F 1977-12-17 ESP 889
DNF   CAPO PENELLA Joan Miquel H 1972-03-20 ESP 470
DNF   RISCO GONZÁLEZ Francisco H 1963-10-04 ESP 468
DNF   ARANDA SALES Carles H 1981-09-09 ESP 702
DNF   GARCÍA QUIRÓS Javi H 1984-08-07 ESP 553
DNF   HAMAKAJI Tomio H 1949-11-15 JPN 338
DNF   MORALES PRADOS Carlos H 1972-01-12 ESP 619
DNF   MONTILLA Salvador H 1974-11-06 ESP 356
DNF   GRAU ALIS Elena F 1986-09-11 ESP 868
DNF   SOLA SOLIS Josep H 1989-02-06 ESP 368
DNF   BELTRAN GARCIA Josede H 1980-02-13 ESP 462
DNF   BLANES ESCRIVÀ Paco H 1966-05-29 ESP 496
DNF   TORRES MARSOL Josep Maria H 1971-10-03 ESP 637
DNF   FERRANDO BELTRÁN Monica F 1978-05-18 ESP 877
DNF   CAMA MINGOT Manel H 1979-05-31 ESP 378
DNF   REDPATH Glen H 1965-08-03 USA 315
DNF   BARATECH PENINA David H 1979-03-08 ESP 661
DNF   RAMOS BALLESTEROS Pedro H 1953-08-10 ESP 656
DNF   JOANIQUET PLANELLA Marc H 1974-12-12 ESP 412
DNF   TAMARIT BAZAN Rafael H 1954-07-13 ESP 431
DNF   PRATS GIMENO Jose Antonio H 1985-02-04 ESP 477
DNF   FERNANADEZ LUNA Jesus H 1989-10-12 ESP 655
DNF   JULIA SOLBES Saul H 1986-03-27 ESP 654
DNF   VISCARRI Dani H 1979-10-05 ESP 339
DNF   VALGAÑÓN BARBERÀ Oriol H 1983-10-07 ESP 649
DNF   BARBERA Ignasi H 1981-03-16 ESP 641
DNF   FRANCH PIÑOL Narcis H 1963-10-31 ESP 613
DNF   PRAT MEMBRIVE Erik H 1982-05-03 ESP 507
DNF   BAENA RIBE Jose H 1981-10-11 ESP 658
DNF   ROMERO FABIAN Luis H 1973-01-29 ESP 647
DNF   GIMÉNEZ PASCUET Javi H 1978-11-02 ESP 383
DNF   CURTO SALVADO Albert H 1971-10-23 ESP 628
DNF   PRADES MARTELL Eneko H 1979-11-04 ESP 407
DNF   BARRACHINA BELLMUNT Ivan H 1989-06-28 ESP 463
DNF   LUQUE NAVAS Fernando H 1967-12-31 ESP 621
DNF   MESTRES CHACON Jordi H 1967-05-21 ESP 577
DNF   BOU PLANELL Pere H 1971-07-28 ESP 651
DNF   FONT PIJUAN Jesús H 1968-08-05 ESP 389
DNF   BUIRA COMELLA Francesc H 1961-10-19 ESP 358
DNF   VALLVERDU COLOM Raimon H 1971-04-06 ESP 366
DNF   ESCRIVÀ ESCRIVÀ Vicente Juan H 1971-07-05 ESP 508
DNF   VILLAR RUBIROLA Sergi H 1968-05-31 ESP 629
DNF   ARTUÑEDO MARTINEZ Pedro H 1982-02-27 ESP 411
DNF   GRANDA GALLARDO Veronica F 1977-11-28 ESP 888
DNF   QUESADA NAVARRO Ivan H 1976-01-21 ESP 465
DNF   ESTELA RIBES David H 1981-09-12 ESP 381
DNF   TOMÁS FACI Guillermo H 1984-06-04 ESP 453
DNF   ESTERAS OTAL Luis H 1984-06-16 ESP 452
DNF   NURI BARRULL Alberto H 1955-11-16 ESP 632
DNF   SORIANO GRACIA Jose Antonio H 1970-05-26 ESP 472
DNF   MARCH FONOLL Jordi H 1977-05-20 ESP 579
DNF   GÓMEZ GÓMEZ Sebastián H 1973-07-03 ESP 447
DNF   PEREZ MIRADA Jordi H 1974-03-20 ESP 418
DNF   MORALES MARTÍNEZ Julio H 1972-06-29 ESP 377
DNF   MORAL CAÑAS Juan H 1954-09-24 ESP 616
DNF   PRATS GIMENO Javier H 1981-08-29 ESP 476
DNF   MARTÍ RODRIGUEZ Elisabeth F 1980-01-11 ESP 875
DNF   MAESTRE GARCÍA Toni H 1973-11-13 ESP 393
DNF   MONLEON CASTELLO Jesus H 1977-12-15 ESP 660
DNF   BLASCO MARTÍ Miquel H 1974-08-13 ESP 636
DNF   CIRERA FAIBELLA Toni H 1963-03-01 ESP 618
DNF   CAMPOR ALEGRE Belen F 1966-03-26 ESP 880
DNF   CARRASCO FRANCH Jordi H 1971-06-06 ESP 390
DNF   FOIX-SAURET David H 1975-08-06 FRA 422
DNF   GIL ESCRIG Pepe H 1981-07-22 ESP 587
DNF   PEREZ PIZARRO Francisco H 1977-07-22 ESP 602
DNF   CAUSERA VALERO Francisco De Borja H 1980-02-21 ESP 436
DNF   GIRBES GALLEGO Jose Ramon H 1977-05-12 ESP 434
DNF   GIRBES GALLEGO Sergio H 1979-11-16 ESP 428
DNF   NOGUÉS ROIG Alexandre H 1977-02-04 ESP 607
DNF   CAMARASA Juanvi H 1967-04-21 ESP 427
DNF   ROJAS CASTILLO Gerard H 1988-10-05 ESP 676
DNF   ESCRIVA PONS Alberto H 1966-10-13 ESP 503
DNF   SANCHEZ FERRAGUT AMOROS Ignacio H 1974-06-03 ESP 359
DNF   BROTONS RIPOLL Alejandro H 1983-07-10 ESP 482
DNF   ANDRÉS I RAMON Jordi H 1967-01-15 ESP 583
DNF   ALTAMIRA Aníbal H 1961-01-10 ARG 509
DNF   PINO MARTIN Rosa F 1975-01-06 ESP 871
DNF   RODRIGUEZ MANZANEQUE MARTINEZ Maite F 1971-10-25 ESP 879
DNF   DOLCET SERRA Joan Marc H 1969-01-25 ESP 426
DNF   FARRE ALANDETE David H 1969-10-21 ESP 489
DNF   HEREDIA GONZÁLEZ Javi H 1974-05-22 ESP 523
DNF   PONSA SIÑOL Albert H 1969-05-06 ESP 400
DNF   GARCIA Joan Carles H 1972-01-03 ESP 617
DNF   GALITÓ Roger H 1995-03-31 ESP 425
DNF   RODRÍGUEZ LILLO Juan H 1989-02-20 ESP 677
DNF   PADULLÉS ESCRIBÀ Roser F 1970-09-07 ESP 872
DNF   LUQUE PIZARRO Miriam F 1981-10-23 ESP 869
DNF   BALLESTA ALONSO Alberto H 1981-05-06 ESP 399
DNF   SOLA RECHE Jose Maria H 1974-11-27 ESP 480
DNF   KAISER Anja H     925
DNF   KALUS Magdalena F 1986-05-28 GER 923
DNF   SERRA PUJADAS Farners F 1979-12-30 ESP 886
DNF   ROCA COLLELL Anna F 1981-12-15 ESP 874
DNF   AVERY Eileen F 1973-03-03 USA 900
DNF   ESCRIG MARZA Laura F 1978-02-03 ESP 899
DNF   HIDALGO BAY Andres H 1971-09-22 ESP 343
DNF   GABARRI XICOTA Angels F 1976-01-30 ESP 902
DNF   EGEA Diego H 1975-07-26 ESP 720
DNF   ORTIN MONTAÑES Jordi H 1984-04-29 ESP 443
DNF   GONZALEZ-ALLER JURADO Rafael H 1958-02-01 ESP 535
DNF   VILELLA XAMPENY Pere H 1977-04-09 ESP 542
DNF   MARTÍN BALLESTA Samuel H 1985-06-18 ESP 341
DNF   GUIVERNAU ALAIZ Víctor H 1980-07-09 ESP 373
DNF   GUTIÉRREZ BARRERA Ana Belen F 1978-01-04 ESP 906
DNF   DE LA FUENTE ESCAYOLA Jordi H 1964-04-14 ESP 455
DNF   GUTIERREZ ORTEGA Xavi H 1978-07-18 ESP 539
DNF   TREVIÑO CABOT Isaac H 1979-05-07 ESP 536
DNF   CALVO CAPILLA Antonio H 1978-07-26 ESP 364
DNF   SHIRAISHI LATORRE Naoki H 1979-03-01 ESP 478
DNF   GARCÍA FERNANDEZ David H 1972-02-13 ESP 392
DNF   SANCHEZ CEBRIAN Juan Carlos H 1973-09-10 ESP 664
DNF   MAS FUSTER Ramon Ernesto H 1971-11-18 ESP 446
DNF   VILELLA XAMPENY Joan H 1981-05-18 ESP 558
DNF   GALLARDO POVEDA Leyre F 1983-12-08 ESP 884
DNF   ARANDA SALES Joan H 1986-06-05 ESP 603
DNF   SOLER LUQUE Jaume H 1973-06-14 ESP 437
DNF   FERNÁNDEZ SUÁREZ Javi H 1976-03-18 ESP 594
DNF   AIXAID OLIVARES Carmen H 1972-07-17 ESP 926
DNF   ZARCO PUENTE Carlos H 1968-10-16 ESP 590
DNF   MURILLO ALCANTARA Jose Manuel H 1979-03-27 ESP 668
DNF   LAUNAY Christophe H 1965-10-12 ESP 563
DNF   MATARO PASCUAL Toni H 1985-10-17 ESP 605
DNF   BOFÍ CERVERA Jordi H 1984-08-25 ESP 517
DNF   CALDERO FONTANA Jose Maria H 1958-03-12 ESP 435
DNF   GUDIN URIEL Margarita F 1976-10-12 ESP 892

 

Classificación 21km

 

Ranking Temps Cognom Nom Genere Naixement Nacionalitat Dorsal
1 02:18:53 RAZGA Ismael H 19/09/1994 ES 1020
2 02:19:06 INDGAARD Jo Forseth H 14/06/1991 NO 1022
3 02:19:29 JIMENEZ OLLER Juan Javier H 28/09/1995 ES 1283
4 02:21:30 ESPAÑÓ ANICETO Gerard H 28/07/1984 ES 1028
5 02:27:23 SANTIN Léandre H 06/07/1996 FR 1343
6 02:32:14 ROC AMADOR Agustí H 01/01/1980 ES 1349
7 02:37:42 ZAMORA PEREZ Pau H 17/04/1977 ES 1323
8 02:38:57 DUARRI GUILÀ Adrià H 12/07/1997 ES 1004
9 02:39:09 MARTÍNEZ Roger H 31/07/1995 ES 1347
10 02:46:14 PUIG I PUIG Lluís H 14/06/1982 ES 1052
11 02:49:46 GUINOVART COLOM Salomó H 15/11/1999 ES 1287
12 02:50:41 CORREA ORRI Jordi H 30/12/1995 ES 1257
13 02:51:36 LANCELOT Alexandre H 06/12/1986 FR 1333
14 02:52:52 ERENA RIBAS Dani H 05/03/1982 ES 1307
15 02:55:21 PICAS ALBETS Núria F 02/11/1976 ES 1005
16 02:56:50 VERDÉS MAJÀ Martí H 17/03/1977 ES 1290
17 02:58:28 AUBACH COSTA Guillem H 01/11/1986 ES 1171
17 02:58:28 PUJOL FRAU Antoni H 21/04/1973 ES 1289
19 03:00:10 GEOFFRAY Clémentine F 24/10/1994 FR 1603
20 03:00:13 FORTUÑO HERRERA Daniel H 22/07/1991 ES 1233
21 03:01:52 LLACER BADAL Isaac H 30/03/1985 ES 1082
22 03:02:16 SELLARES Marc H 11/10/1987 ES 1069
23 03:04:25 GOUVEIA David H 15/02/1991 PT 1066
24 03:06:04 LOPEZ DOMINGUEZ Nano H 06/07/1982 ES 1036
25 03:08:00 GARCÍA VILLODRES Marc H 08/07/1998 ES 1282
26 03:08:04 MORENO DÍAZ Francisco Javier H 05/05/1972 ES 1077
27 03:08:16 COLOM MOLAS Francesc H 14/03/1983 ES 1261
28 03:10:40 MONTANÉ VIDAL Pau H 23/06/1994 ES 1193
29 03:11:00 CIERCO GARRIDO Carlos H 15/11/1976 ES 1288
30 03:11:01 BLANCO CUENCA Antonio H 18/12/1979 ES 1281
31 03:13:00 POVEDANO RIVERA Jordi H 13/08/1974 ES 1164
32 03:13:01 LLADO Gilbert H 21/05/1987 ES 1163
33 03:13:19 BOADA ORIOLS Imma F 12/01/1979 ES 1563
34 03:13:23 TORRELLES MONTANUY Jordi H 20/06/1991 ES 1329
35 03:15:05 MATAS AGUILERA Kiko H 23/04/1977 ES 1084
36 03:16:00 PORTACUR Giulia F 00/00/0000 ES 1619
37 03:16:12 LIKEMAN Mark H 07/03/1979 UK 1166
37 03:16:12 JORGE RODRIGO Aitor H 01/01/1982 ES 1339
37 03:16:12 NOON Sophie F 29/06/1989 UK 1562
40 03:16:46 JORQUERA Albert H 01/10/1976 ES 1335
41 03:16:52 CASTELLARNAU VILES Laura F 08/10/1979 ES 1617
42 03:16:59 SORIANO ALONSO Ruben H 31/07/1978 ES 1344
43 03:17:50 NOYA GARCIA Ramon H 28/10/1977 ES 1284
44 03:18:09 CUENDE Mikel H 26/06/1985 ES 1202
45 03:19:10 HIS Gautier H 20/08/1990 FR 1104
46 03:19:14 SAMSÓ CUEVAS Quim H 08/03/1999 ES 1094
47 03:19:16 SERRA RODRIGUEZ Albert H 19/09/1982 ES 1109
48 03:19:24 GARCÍA CORTÉS Xavier H 20/10/1992 ES 1231
49 03:19:39 CHAVEZ GIMENEZ Estela F 06/01/1982 ES 1558
50 03:19:42 TORRIJOS JIMÉNEZ Alberto H 16/02/1970 ES 1050
51 03:20:49 ROCA HERMS Claudia F 08/06/1985 ES 1615
52 03:21:37 CORCUERA Sergi H 08/10/1976 ES 1068
53 03:22:52 REIXACH SALVADOR Paula F 12/08/1995 ES 1585
54 03:22:59 PARETAS FERRER Jordi H 04/08/1989 ES 1046
55 03:23:53 SEGURA RIUS Marta F 01/12/1984 ES 1574
56 03:24:38 RODRIGUEZ Rui H 11/05/1979 PT 1338
57 03:25:13 CAPEL FABREGA Xavi H 21/06/1982 ES 1110
58 03:25:25 RIVERA PEÑALVER Jose Luis H 05/05/1970 ES 1221
59 03:25:34 CANALES ARGUDO Oscar H 24/03/1986 ES 1169
60 03:26:04 HERMOZA MEJÍA Alberto H 27/07/1979 PE 1115
61 03:26:37 TORRENS VIVES Albert H 17/02/1988 ES 1024
62 03:26:54 OPSAHL Christian Hay H 17/09/1973 NO 1111
63 03:27:41 ORTES RIGOLA Roser F 00/00/0000 ES 1608
64 03:27:56 MARTÍNEZ MAS Jordi H 18/05/1989 ES 1270
65 03:28:01 MORERA I BLANCH Marta F 10/08/1981 ES 1532
66 03:29:49 MORALEJO MORENO Alfredo H 29/11/1989 ES 1304
67 03:31:02 CANCIO FERVIENZA Alberto H 31/01/1982 ES 1107
68 03:31:12 CODONY BOVER Miquel H 29/06/1975 ES 1054
69 03:31:31 SÁNCHEZ GARCIA Edu H 21/08/1973 ES 1342
70 03:33:54 ROSANES BOSCH Jordi H 13/11/1974 ES 1055
71 03:34:05 COLLADO RUEDA Carlos H 22/05/1984 ES 1258
72 03:34:30 CODINA PUJOLS David H 26/02/1973 ES 1038
73 03:34:38 CASADESÚS AMIGÓ Joan H 28/03/1976 ES 1088
74 03:36:41 GARCIA MASPOCH Jordi H 15/09/1975 ES 1040
75 03:36:55 FUERTES Irene F 08/11/1992 ES 1568
76 03:36:58 GAMIZ RUIZ Miguel Angel H 08/08/1987 ES 1128
77 03:37:05 JIMENEZ BARRANCO Jose Antonio H 03/10/1977 ES 1122
78 03:37:21 ROBLES MARTINEZ Angel H 26/01/1983 ES 1131
79 03:37:41 GALLIFA SILLERO Xavi H 16/08/1983 ES 1067
80 03:37:54 CRUZ MARTINEZ Enric H 28/05/1992 ES 1262
81 03:38:47 BOUZAPORTA Luismiguel H 10/09/1975 ES 1155
82 03:39:02 FERRER ILL Rafel H 25/03/1991 ES 1272
83 03:39:04 ROMAN CAMPOS Joan Carles H 13/08/1986 ES 1160
84 03:40:00 AGUILÀ GÒDIA Gerard H 16/03/1984 ES 1226
85 03:40:13 MONTSERRAT Jul H 27/10/1964 ES 1274
86 03:40:41 CLAVE CAMATS Jordi H 06/01/1994 ES 1293
87 03:40:50 DEL OLMO RUBIO Fernando H 30/01/1967 ES 1061
88 03:41:00 PUJOL RIUS Josep H 07/12/1987 ES 1123
89 03:41:16 QUETGLAS CALDÉS Jaume H 29/01/1980 ES 1148
89 03:41:16 PÉREZ LÓPEZ Benito H 01/06/1977 ES 1149
89 03:41:16 ESTEBAN MORLANS Xavier H 29/07/1975 ES 1153
92 03:41:54 MASOLIVER I PINYOL Albert H 12/09/1989 ES 1129
93 03:42:08 LLERDA PINTO Hector H 19/02/1984 ES 1311
94 03:42:18 VERGES RABINAD Ktiu H 01/12/1987 ES 1141
95 03:43:36 HOMBRE DOPAZO Pepe H 08/12/1965 ES 1150
96 03:43:38 RIERA PARERA Pol H 11/11/1998 ES 1238
97 03:44:01 VILLORBINA CALAFELL Josep H 11/04/1986 ES 1053
98 03:44:18 JIMÉNEZ DE LOS SANTOS Raül H 18/12/1976 ES 1075
99 03:45:09 ZARAGOZA ALÒS Albert H 26/04/2017 ES 1184
100 03:45:17 CROS RELAÑO Toni H 22/06/1976 ES 1303
101 03:48:58 MÈLICH SEBASTIAN Marc H 01/08/1993 ES 1064
102 03:49:48 BOSCH DORCA Bernat H 23/12/1988 ES 1144
103 03:49:50 TORRES FERRET Irene F 20/10/1989 ES 1564
104 03:49:52 ROSAS Xavi H 24/12/1978 ES 1295
105 03:50:10 GIRVENT LÓPEZ Antoni H 15/09/1976 ES 1286
106 03:51:22 REDOLAD GARCIA Pol Makuri H 07/02/1991 ES 1097
107 03:51:49 VILANOVA TOUS San F 01/01/1981 ES 1517
108 03:53:23 CABANILLAS FERNANDEZ Cristian H 30/05/1999 ES 1301
109 03:53:55 CASABAYÓ CASANOVAS Jordi H 08/01/1980 ES 1214
110 03:54:33 LLEVADOT LLOBERA Josep H 09/09/1966 ES 1030
111 03:54:34 VALVERDE CASTAN Jonatan H 22/05/1989 ES 1318
112 03:54:56 MELICH BORRÀS Ramir H 24/02/1983 ES 1330
113 03:55:41 VILLA VILLAMOR Daniel H 09/01/1982 ES 1189
114 03:55:45 CALVET RODRÍGUEZ Natàlia F 24/08/1982 ES 1571
115 03:56:11 MARTINEZ JOVE Joan H 25/04/1981 ES 1321
116 03:57:10 SILEO Andrea H 11/12/1984 ES 1136
117 03:58:43 MEDEROS CORDOVES Armando H 10/03/1990 CU 1266
118 03:59:08 ABOUL-HOSN CENTENERO Samir H 24/02/1974 ES 1210
119 03:59:56 BURGUET SALVATELLA Adria H 02/10/1991 ES 1159
120 04:00:03 GARCÍA RAMOS Robert H 07/06/1977 ES 1180
121 04:00:51 CABANILLAS GARCIA Juan De Dios H 30/08/1974 ES 1299
122 04:01:22 ALCARAZ SANCERNI Maiol H 04/01/1991 ES 1114
123 04:01:25 MUNTADA OLIVA Guillem H 25/09/1993 ES 1269
123 04:01:25 URBISTONDO OCHANDORENA Asier H 11/04/1982 ES 1292
125 04:01:56 CASELLAS CUNILL Mireia F 22/03/1985 ES 1542
126 04:02:32 MURILLO SANCHEZ Domingo H 19/11/1977 ES 1213
127 04:02:58 GOLMAIO AIESTARAN Garazi F 25/07/1994 ES 1545
128 04:03:00 TRABALON MARTINEZ Gabriel H 22/01/1978 ES 1098
129 04:03:01 ARAGON PEDRAZA Manuel H 06/05/1986 ES 1194
130 04:03:32 CARTANYÀ MARTÍ Joan H 26/07/1958 ES 1039
131 04:04:27 RICO VARGAS Sergi H 06/05/1984 ES 1326
132 04:04:41 INGLES IBARS Ivan H 08/11/1985 ES 1117
133 04:04:49 OLIVER GOÑALONS Xec H 21/06/1974 ES 1113
134 04:04:53 FALCON SOLDEVILA Enric H 08/06/1971 ES 1322
135 04:05:00 DOMINGO MURILLO Albert H 14/03/1988 ES 1232
136 04:05:07 MARTÍN ALVAREZ Jorge H 18/04/1976 ES 1041
137 04:05:39 PLANAS MARIÑO Jordi H 08/07/1973 ES 1341
138 04:05:42 RODRIGUEZ ORELLANA Juan Manuel H 30/05/1983 ES 1099
139 04:05:58 ESTRUCH SAMPER Jordi H 09/10/1981 ES 1057
140 04:06:24 MONTAGUT CARBÓ Carlos H 15/05/1984 ES 1332
141 04:06:50 SOTO PAREDES Daniel H 19/06/1980 EQUADOR 1162
142 04:07:01 COMMISSARIS Theo H 11/02/1992 ES 1263
143 04:07:08 VALLÉS LLORD Gerard H 27/11/1994 ES 1188
143 04:07:08 CABRERA CARABAZA Jesús H 17/05/1984 ES 1327
145 04:07:14 ILLESCAS SANCHEZ Alex H 08/08/1984 ES 1183
146 04:07:31 VILLAFAÑE CANALEJO Aleix H 18/10/1983 ES 1317
147 04:07:44 RUBERT MASIÁ Javier H 30/04/1981 ES 1199
148 04:08:08 BRESSON Rafaël H 17/11/1983 FR 1248
149 04:08:33 MONIZ PORTUGAL Mafalda F 26/06/1986 ES 1618
150 04:08:37 RIVERO VALENZUELA David H 01/04/1984 ES 1254
151 04:08:40 ROSENDO CABRERA Adrià H 19/04/1993 ES 1187
152 04:08:43 FERNÁNDEZ CARBIA Michael H 15/08/1985 ES 1315
153 04:08:46 HERNÁNDEZ CUADROS Eva F 11/02/1972 ES 1530
154 04:08:47 REGUE CODINA Miquel H 18/10/1966 ES 1047
155 04:08:50 SEGURA Eva F 30/03/1975 ES 1565
156 04:08:58 TORRES CORTÈS Jordi H 16/01/1977 ES 1059
157 04:09:16 FERNANDEZ PUIGPELAT Jordi H 12/04/1973 ES 1319
158 04:09:24 VILADEGUT Carles H 06/03/1971 ES 1312
159 04:09:31 DOMÈNECH TRALLERO Arnau H 17/02/1983 ES 1034
160 04:10:00 MONTERO CORIA Guillem H 30/09/1971 ES 1063
161 04:10:08 ARIMANY SOLER Maria F 29/12/1977 ES 1006
162 04:10:13 FORNÉS BALLESTER Àngel H 13/08/1980 ES 1045
163 04:10:14 SAMPIETRO ALONSO Alberto H 07/03/1984 ES 1328
164 04:11:40 ANTON LENO Aitor H 07/07/1991 ES 1033
164 04:11:40 URIBARRI MARTINEZ Nagore F 11/02/1999 ES 1514
166 04:11:43 TOMAS COSTA Adria H 01/03/1991 ES 1255
167 04:12:20 CHACON CORVO Sergio H 11/06/1977 ES 1250
168 04:12:26 FRANCH ALIMBAU Narcís H 10/04/1989 ES 1185
169 04:13:17 GUIRAL ANGULO Sergio H 10/07/1987 ES 1132
170 04:13:58 CAMPOS LOZANO Gabriel H 09/07/1969 ES 1220
171 04:14:10 CERDÀ HERNANDEZ Maribel F 04/02/1978 ES 1582
172 04:14:45 DALMAU SOLEY Jordi H 28/12/1971 ES 1152
173 04:14:56 SORIANO Toni H 09/09/1967 ES 1143
174 04:15:32 LOPEZ PADILLA Christian H 09/07/1984 ES 1119
175 04:15:39 SÁNCHEZ Oriol H 25/05/1982 ES 1244
176 04:15:40 ARMENGOU MOLINS Martí H 08/03/1982 ES 1023
177 04:17:12 MIQUEL MARCO David H 23/12/1987 ES 1241
178 04:18:58 RECIO PEREZ Silvia F 15/02/1981 ES 1598
179 04:19:00 SANTACREU SANTAUGINI Lluis H 17/10/1974 ES 1108
180 04:19:08 BECERRA VACAS Joel H 14/08/1990 ES 1313
181 04:19:19 ESCUDÉ SERRA Josep H 28/02/1967 ES 1083
182 04:19:38 ELVIRA MINGUEZ Josep Maria H 22/06/1968 ES 1334
183 04:20:07 FLIX JORDANA Xavier H 12/08/1971 AD 1337
184 04:21:39 FERNANDEZ BONEL Anna F 17/02/1989 ES 1609
185 04:21:47 SERRET CANELA Joan Carles H 05/09/1968 ES 1294
186 04:21:49 CARRASCO PASTOR Lorena F 17/03/1986 ES 1576
187 04:21:50 TORRENT BERNADAS David H 04/07/1962 ES 1175
188 04:21:58 DOCANDO GOMEZ Kepa H 25/06/1979 ES 1275
189 04:25:33 PARERA BAYÓ Montserrat F 14/09/1971 ES 1556
190 04:26:03 FERNANDEZ AISA Eloi H 15/04/1988 FR 1234
191 04:26:41 RAYA JIMENEZ Juan Francisco H 01/05/1970 ES 1204
192 04:27:00 BAENA JIMENEZ Miguel Angel H 29/05/1973 ES 1203
193 04:27:23 ALCARRAZ ESPELTA Jaume H 22/07/1981 ES 1316
194 04:27:34 AGUILAR RIOS Emma F 26/12/1981 ES 1580
195 04:27:42 DURAN SABARIEGO Sergio H 04/09/1991 ES 1092
195 04:27:42 GARCÍA SAENZ Marcos H 08/09/1985 ES 1239
197 04:27:53 MARTÍNEZ Jordi H 29/11/1989 ES 1249
198 04:28:33 QUIXAL FRANCO Miquel Àngel H 26/06/1967 ES 1308
199 04:28:43 BOTA CASALS Joel H 04/01/1995 ES 1200
200 04:30:18 CATLLÀ Jordi H 03/06/1976 ES 1071
201 04:30:50 DALMAU LOPEZ Sergio H 19/05/1972 ES 1320
202 04:31:14 BAS PARERA Manel H 19/07/1967 ES 1074
203 04:31:35 VALLS SANZ Joana F 07/01/1990 ES 1560
204 04:31:50 MEDALLA HERRERA Israel H 06/10/1983 ES 1260
205 04:32:14 GODIA I RIBES Albert H 09/05/1981 ES 1176
206 04:32:38 CIERCO VISEN Xavier H 10/04/1976 ES 1285
207 04:32:42 GRÀCIA Jordi H 16/03/1973 ES 1302
208 04:35:30 SAGRISTA SABALA Enric H 18/05/1967 ES 1112
209 04:35:33 BLANCH BATET Joan H 23/04/1998 ES 1093
209 04:35:33 AYESA FERRER Pedro H 20/02/1976 ES 1201
211 04:35:42 RUIZ ARGUISUELAS Xavi H 04/01/1993 ES 1142
212 04:36:09 DELGADO GONZALEZ Jordi H 15/09/1975 ES 1236
213 04:36:13 GORDUN ORTEU Albert H 20/12/1989 ES 1079
214 04:36:14 GARCIA MOYA Mario H 10/12/1974 ES 1078
215 04:36:20 ALCIVAR BARNUEVO Cristina F 29/05/1986 ES 1614
216 04:36:22 USED TREPAT Artur H 08/07/1983 ES 1230
216 04:36:22 GILABERT ROCA Julia F 20/08/1988 FR 1546
218 04:36:25 DOT Aina F 15/07/1985 ES 1538
219 04:36:33 ROVIRA LLORACH Joan H 08/11/1972 ES 1105
220 04:36:37 CASAMITJANA FERNANDEZ Xavier H 11/04/1980 ES 1277
221 04:36:38 GARDEÑES POTRONY Cristina F 01/01/1980 ES 1602
222 04:37:16 BONET ALBAREDA Roman H 28/09/1980 ES 1044
223 04:37:33 LLEOPART I ESQUERDO Oriol H 13/02/1989 ES 1080
223 04:37:33 GILIBETS I BARBENS Laia F 16/12/1988 ES 1537
225 04:37:54 PALLARÉS LLEIXA Raul H 23/01/1963 ES 1345
226 04:38:20 FUERTES RONCERO David H 16/09/1991 ES 1090
227 04:39:11 GRACIA SATORRES Carlos H 26/12/1974 ES 1118
228 04:39:15 TORRES CHAVES Raquel F 07/11/1977 ES 1577
229 04:40:11 SANTESMASSES Aida F 19/08/1986 ES 1621
230 04:40:45 GIMENEZ PEREZ Marta F 07/05/1976 ES 1535
230 04:40:45 FERRER TERUEL Margarita F 28/04/1980 ES 1548
232 04:43:46 FORNELLS BARBERÀ Imma F 30/12/1983 ES 1605
233 04:43:47 JIMENEZ Emma F 18/07/1974 AD 1600
234 04:44:00 TORRECILLAS GOMEZ Jordi H 27/02/1978 ES 1279
235 04:45:12 BAUS ROSSET Jordi H 02/12/1975 ES 1340
236 04:45:37 LÓPEZ VARGAS Carlos H 14/05/1979 ES 1157
237 04:47:54 GONZALEZ GUTIERREZ Beatriz F 05/05/1985 ES 1526
238 04:50:13 MEDINA PARRA Beatriz F 28/09/1981 ES 1554
239 04:50:34 BARBERA BOSCH Sandra F 19/05/1977 ES 1513
240 04:50:36 HERNANDO PORTERO Daniel H 15/08/1991 ES 1091
241 04:52:22 DIOS REY Andres H 07/05/1973 ES 1151
242 04:53:09 LANUZA SERRANO Laura F 25/05/1978 ES 1525
243 04:53:20 BIOSCA CABALLERO Miguel H 18/12/1986 ES 1140
244 04:53:21 BORRALLO LLAURADÓ Sergi H 08/12/1981 ES 1062
244 04:53:21 CERVANTES DOTOR Joan Antoni H 21/09/1975 ES 1138
246 04:53:26 FELIPE CARRANCO Jose Manuel H 14/08/1970 ES 1121
247 04:53:29 OLMO IBÀÑEZ Aitor H 28/06/1978 ES 1325
248 04:53:31 BARENYS LLORT Gisela F 20/12/1986 ES 1613
249 04:54:33 CASTELLO CASTELLO Jose Pascual H 15/10/1968 ES 1043
250 04:54:42 CASADO FERNANDEZ Ivan H 19/05/1979 ES 1227
251 04:56:05 BENITO Alvaro H 18/08/1978 ES 1165
252 04:56:08 LOESCH Fabian H 11/09/1994 DE 1309
253 04:57:08 OLLÉ MAS Miquel H 03/11/1972 ES 1256
254 04:57:09 BERTRAN MAS Ramon H 24/09/1962 ES 1048
255 04:57:10 GRAELLS SOLÉ Angel H 28/08/1965 ES 1348
256 04:57:54 MAGEM PRAT Mercè F 17/11/1961 ES 1611
257 04:58:31 GUTIERREZ BADENES Lorena F 03/10/1981 ES 1518
258 04:58:33 CABRERO MIRAS Betsabé F 25/06/1980 ES 1606
259 04:58:34 FERNÁNDEZ ABILLA David H 13/07/1971 ES 1298
260 04:58:49 VIDAL VALLS Roger H 04/08/1968 ES 1137
261 04:58:55 LLOBET SOTELO Josep M. H 25/05/1988 ES 1271
262 04:59:09 CASTELLO CATALA Jose H 05/04/1979 ES 1207
263 05:00:27 COMIN GIMENO Fernando H 24/04/1986 ES 1179
264 05:00:42 MARIN CAICEDO Maite F 23/07/1990 ES 1539
265 05:00:43 LLARDEN MARIN Josep Mª H 01/11/1978 ES 1056
266 05:01:00 MOIX RODRIGUEZ Marcos H 06/08/1983 ES 1228
267 05:01:01 RODRIGUEZ MARTIN Alba Maria F 20/08/1985 ES 1589
268 05:01:20 PONS COLL Ferran H 07/04/1999 ES 1198
269 05:01:47 DE LA TORRE CELADES Maria F 20/10/1987 ES 1547
270 05:02:07 DANZIG Laura F 16/08/1990 ES 1584
271 05:02:32 TORREGUITART MAURI Jordi H 16/01/1981 ES 1278
272 05:02:49 POVES Ignasi H 30/09/1969 ES 1208
273 05:03:46 VINOGRADOV Anton H 11/04/1977 FR 1126
274 05:03:47 NINA Vinogradova F 14/09/1976 FR 1552
275 05:03:48 RODRIGUEZ ALEGRE Rebeca F 06/09/1978 ES 1520
276 05:04:15 VILANOVA RIBOT Xavi H 28/10/1970 ES 1190
277 05:04:23 TISELL COS Joan H 19/08/1971 ES 1135
278 05:04:43 CULLERES PUIGDELLOSAS Ariadna F 14/06/1973 ES 1620
279 05:04:44 LUIS VALDES Yoan H 17/06/1986 CU 1267
280 05:04:46 MARTÍNEZ FERNÁNDEZ Pedro H 23/01/1982 ES 1173
281 05:07:52 SERRA CAIROL Jaume H 26/08/1982 ES 1346
282 05:10:51 SANJUAN CASTELLO Alberto H 24/04/1970 ES 1042
283 05:10:53 MARTIN ANGULO Manuel H 23/02/1972 ES 1172
284 05:12:06 HAYTON James H 19/11/1980 ES 1314
285 05:12:21 SERRANO CHACON Oscar H 30/06/1979 ES 1280
286 05:12:30 OLIVER PERDIGONES Laura F 21/05/1986 ES 1599
287 05:14:57 BAGUE GARI Javier H 28/10/1984 ES 1031
287 05:14:57 MILLANES PORTER Miguel H 28/02/1983 ES 1032
289 05:14:59 RIART BARRIL Daniel H 25/12/1992 ES 1243
290 05:15:41 CARAVACA Lázaro H 01/02/1989 ES 1305
291 05:16:26 GARCIA LOPEZ Sergi H 19/01/1969 ES 1025
292 05:16:27 MUÑOZ SANTOS José H 26/03/1974 ES 1027
293 05:17:03 GIMENEZ Alba F 01/05/1991 ES 1597
294 05:17:04 JOVAL RAMIRO Bernat H 07/03/1989 ES 1252
295 05:20:19 BRULL ALBIOL Gina F 03/07/1989 ES 1572
296 05:20:20 MELLOR Trish F 05/02/1959 ES 1593
297 05:20:26 EXTREMERA VALLECILLOS Mari Carmen F 11/10/1993 ES 1588
298 05:20:32 OLIVAS Sergio H 01/11/1972 ES 1087
299 05:22:18 MORRO SANS Joan H 15/02/1985 ES 1124
300 05:22:19 MENA LÁZARO Gema F 23/12/1985 ES 1550
301 05:23:08 GARCIA PELEGRI Sergi H 01/03/1975 ES 1218
302 05:24:41 POMÉS AIXUT Joel H 25/10/1977 ES 1154
303 05:24:42 LABELLA AIXUT Ivan H 13/10/1973 ES 1147
304 05:25:50 MARTI Alex H 21/12/1981 ES 1223
305 05:28:08 FEXAS Rafel H 03/08/1976 ES 1158
306 05:29:57 FERRÉ CASTELLARNAU Núria F 06/05/1972 ES 1533
307 05:30:16 ALBAREDA MAS Elisenda F 11/11/1962 ES 1596
308 05:32:40 RODRIGUEZ MARTINEZ Francisco H 20/08/1962 ES 1235
309 05:33:24 GONZÁLEZ PRESA David H 15/05/1978 ES 1212
309 05:33:24 ALONSO GONZALEZ Carlos H 02/04/1978 ES 1215
311 05:33:27 JESKE Sandra F 20/12/1982 DE 1566
312 05:34:37 FERNÁNDEZ CAMPOS Sergio H 04/01/1976 ES 1073
313 05:36:20 MAYORA ROLDAN Nestor H 03/10/1984 ES 1181
314 05:36:21 ARBONES ARQUE Irela F 30/08/1979 ES 1569
315 05:37:07 HERRERA MONFORTE Alexander H 25/01/1988 ES 1259
316 05:37:33 CASTEL PUIGVERT Ricard H 04/01/1988 ES 1156
317 05:38:30 GONZÁLEZ Ferran H 05/10/1969 ES 1209
318 05:39:41 BURGER Lauriane F 01/10/1982 FR 1531
319 05:40:14 TENA FERNÀNDEZ Sergi H 20/01/1970 ES 1336
320 05:40:29 BARRIO ARGENTTI Mario H 30/04/1968 ES 1246
320 05:40:29 RODON NAVARRO Teresa F 17/02/1976 ES 1595
322 05:41:08 RIERA BOTA Natalia F 29/11/1968 ES 1594
323 05:41:09 CORDOBA BELLIDO Xavier H 12/03/1966 ES 1195
324 05:42:19 GRAU CLAR Eduardo H 12/03/1972 ES 1217
325 05:43:56 PREDA Andrei H 27/11/1986 UK 1130
326 05:43:58 ARBOLI VALLS Marta F 02/09/1986 UK 1555
327 05:45:53 PASTOR IBAÑEZ Isaac H 08/09/1985 ES 1133
328 05:45:54 MORALEDA ALFEREZ Elena F 09/09/1992 ES 1557
329 05:46:03 CENDRA SIMÓN Jesús H 13/06/1969 ES 1139
330 05:46:10 VIANA NOGUÉS Joan H 08/07/1974 ES 1264
331 05:49:31 SÁNCHEZ OBRERO Raquel F 13/09/1976 ES 1559
332 05:51:50 KLOESMEIJER Marcel H 11/10/1964 NL 1167
333 05:52:49 RIZO MUNS Francesc H 04/12/1962 ES 1081
334 05:54:03 MASIP GRACIA Cristina F 08/03/1965 ES 1573
335 05:54:04 PUIG VELANDO Montse F 19/05/1971 ES 1534
336 05:54:06 INGLES CASELLES Joan H 21/09/1954 ES 1127
337 05:54:26 MORALEDA MOYA Paco H 16/09/1957 ES 1134
338 05:55:20 GIMENEZ TURCÓ Núria F 20/03/1986 ES 1527
339 05:55:44 MARTIN TORRES Joan H 29/01/1976 ES 1058
340 05:56:31 BLANCO SOTERAS Enrique H 30/10/1981 ES 1296
340 05:56:31 SERRA ROMERO Marc H 28/08/1981 ES 1306
342 05:59:46 ARJONA MAS Montserrat F 22/03/1975 ES 1522
343 06:04:11 KLOESMEIJER Nicolette F 24/12/1967 NL 1583
344 06:04:12 LANGHEINRICH Markus H 06/01/1966 ES 1085
344 06:04:12 WILLEMSEN Jan Peter H 25/03/1964 NL 1222
344 06:04:12 ESTÉVEZ FERNÁNDEZ Noelia F 05/11/1976 ES 1521
347 06:06:26 CRUSAT ENRICH Marta F 20/12/1962 ES 1622
348 06:14:18 PATEL Dillon H 05/01/1995 US 1237
349 06:29:17 JESKE Christian H 22/09/1977 DE 1178
350 06:35:44 CONTE Beatriz F 29/01/1968 ES 1528
350 06:35:44 CASADO FERNANDEZ Eva F 25/04/1975 ES 1587
352 06:39:47 LUIS ALONSO Iván H 18/10/1983 ES 1273
353 06:51:42 ALCAINE ROMO Eduardo H 09/06/1967 ES 1225
354 07:08:17 UCEDA HERNANDEZ Sergi H 21/01/1973 ES 1051
355 07:08:35 GALAN ALMEDA David H 08/12/1980 ES 1206
356 07:08:42 GUZMAN CARRASCO Oscar H 05/03/1978 ES 1029
357 07:27:23 GALCERAN CAMACHO Eulalia F 18/06/1973 ES 1511
358 07:30:02 FALGUERA RAMOSDS Cristina F 24/05/1989 ES 1586
359 07:30:03 RÁBADE Elena F 25/11/1992 ES 1549
360 07:36:35 MENDES Luciana F 11/03/1983 BR 1575
361 07:55:49 FARRÉ PALAZÓN Imma F 17/07/1979 ES 1540
362 07:55:50 LÓPEZ LAZCANO Eduardo H 09/08/1980 ES 1086
363 07:56:42 VERHOEVEN Britta F 05/03/1975 DE 1177
DNF 09/02/1997 THIEDE F Fora de temps   DEU 1567
DNF 12/08/1991 FERRER NIETO H     ESP 1186
DNF 26/03/1975 GONZÁLEZ MARTÍN H     ESP 1116
DNF 31/05/1962 GONZÁLEZ MARTÍN H     ESP 1245
DNF 14/09/1974 VILA ESCRICH F     ESP 1607
DNF 09/07/1950 LEONARDI H     ITA 1253
DNF 06/09/1993 BROSEL VIAÑA F     ESP 1610
DNF 10/01/1998 SÁNCHEZ RODRÍGUEZ H     ESP 1089
DNF 11/09/1969 MUÑOZ GARCIA F     ESP 1512
DNF 01/01/2017 VALERO POVEDA H     ESP 1161